[[{"header":{"parameterUnit":"m.s-1","parameterCategory":1,"la1":30.2991,"la2":30.254,"lo1":-89.0895,"lo2":-89.0444,"dy":0.0017,"dx":0.0017,"nx":28,"ny":28,"refTime":"2025-12-17T03:00:00:Z","depth":0,"parameterNumber":2,"parameterNumberName":"U-component_of_WINDS"},"data":[0,0,0,0,0,0,0,0,0,0,0,0,0,0,0,0,0,0,0,0,0,0,0,0,0,0,0,0,0,0,0,0,0,0,0,0,0,0,0,0,0,0,0,0,0,0,0,0,0,0,0,0,0,0,0,0,0,0,-5.4708,-5.471,0,-5.4879,-5.4881,-5.4883,-5.4872,-5.487,-5.4867,-5.4865,-5.5038,-5.5045,-5.5052,0,0,0,0,0,0,0,0,0,0,0,0,0,-5.4372,-5.4378,-5.4708,-5.471,-5.4712,-5.4879,-5.4881,-5.4884,-5.4872,-5.4869,-5.4866,-5.4864,-5.5036,-5.5044,-5.5053,0,0,0,0,0,0,0,0,0,0,0,0,0,-5.4528,-5.438,-5.4707,-5.4727,-5.473,-5.4878,-5.4881,-5.4884,-5.4873,-5.4869,-5.4866,-5.4862,-5.5033,-5.5044,-5.5054,-5.5193,0,0,-5.5086,-5.509,0,0,0,0,0,0,0,0,-5.4519,-5.454,-5.4722,-5.4726,-5.473,-5.485,-5.4827,-5.4988,-5.4874,-5.4819,-5.4865,-5.486,-5.4979,-5.4993,-5.5034,-5.5202,-5.5209,-5.5087,-5.5093,-5.5097,-5.51,0,0,0,0,0,0,0,-5.4508,-5.4533,-5.4775,-5.4724,-5.4729,-5.4727,-5.4745,-5.4857,-5.4918,-5.4823,-5.4823,-5.4843,-5.498,-5.5024,-5.5038,-5.5212,-5.5086,-5.5096,-5.5102,-5.5106,-5.5506,-5.551,0,0,0,0,0,0,-5.4493,-5.4524,-5.477,-5.4781,-5.4613,-5.4736,-5.4756,-5.4815,-5.4916,-5.4928,-5.4847,-5.4842,-5.5008,-5.5026,-5.5044,-5.5215,-5.5097,-5.5107,-5.5113,-5.5501,-5.5507,-5.5511,0,0,0,0,0,0,-5.4486,-5.4515,-5.4763,-5.4652,-5.4684,-5.4746,-5.4812,-5.4821,-5.4864,-5.4934,-5.4945,-5.488,-5.5006,-5.5029,-5.5157,-5.5221,-5.5112,-5.5121,-5.5496,-5.5503,-5.5509,-5.5557,0,0,0,0,0,0,-5.4476,-5.4513,-5.4566,-5.4654,-5.469,-5.4873,-5.4816,-5.4827,-5.4882,-5.4879,-5.4968,-5.4979,-5.5004,-5.5142,-5.5167,-5.5233,-5.513,-5.5491,-5.5499,-5.5507,-5.555,-5.5565,-5.5577,0,0,0,0,0,-5.4464,-5.4571,-5.4568,-5.4598,-5.4757,-5.4877,-5.4897,-5.4924,-5.4888,-5.4942,-5.4987,-5.4976,-5.521,-5.5155,-5.5184,-5.5253,-5.5487,-5.5497,-5.5506,-5.5544,-5.5562,-5.5577,0,0,0,0,0,0,-5.4487,-5.4583,-5.4581,-5.4719,-5.479,-5.4874,-5.4943,-5.4942,-5.5024,-5.5017,-5.5047,-5.5067,-5.5196,-5.5238,-5.5174,-5.5396,-5.5344,-5.536,-5.5363,-5.538,-5.5393,-5.5379,-5.5138,0,0,0,0,0,-5.4509,-5.4598,-5.4677,-5.4792,-5.4828,-5.488,-5.4933,-5.4948,-5.5022,-5.5052,-5.5106,-5.5179,-5.5269,-5.5327,-5.5414,-5.5558,-5.5577,-5.562,-5.5634,-5.5644,-5.5657,-5.5738,-5.5758,-5.5544,-5.5543,-5.5543,0,0,-5.4553,-5.4617,-5.467,-5.4798,-5.4854,-5.4946,-5.4905,-5.5003,-5.5071,-5.5067,-5.519,-5.5234,-5.5317,-5.5454,-5.5517,-5.5493,-5.5722,-5.5657,-5.5665,-5.5672,-5.575,-5.577,-5.5788,-5.555,-5.5549,-5.5548,0,0,-5.468,-5.4738,-5.484,-5.4899,-5.4987,-5.5021,-5.5046,-5.5133,-5.5161,-5.5287,-5.5286,-5.5369,-5.5523,-5.5583,-5.5633,-5.579,-5.5783,-5.5818,-5.5886,-5.5965,-5.5982,-5.5997,-5.6052,-5.6072,-5.5831,-5.5831,-5.5831,0,-5.4724,-5.4862,-5.4893,-5.4993,-5.505,-5.5053,-5.5157,-5.5213,-5.5323,-5.5363,-5.5335,-5.5531,-5.5587,-5.5738,-5.5777,-5.5818,-5.5848,-5.5805,-5.5977,-5.5992,-5.6007,-5.606,-5.6081,-5.5834,-5.5834,-5.5834,-5.5833,0,-5.4912,-5.5009,-5.5081,-5.519,-5.5255,-5.5357,-5.5404,-5.5467,-5.5478,-5.5516,-5.5646,-5.5714,-5.5816,-5.5854,-5.5865,-5.6009,-5.5991,-5.597,-5.5918,-5.603,-5.6081,-5.6102,-5.5839,-5.5838,-5.5837,-5.5836,0,0,-5.5052,-5.5181,-5.5207,-5.5258,-5.5357,-5.5432,-5.5536,-5.5637,-5.569,-5.5769,-5.5856,-5.5989,-5.5972,-5.6029,-5.6048,-5.6118,-5.6238,-5.6088,-5.6091,-5.6113,-5.6401,-5.6414,-5.6437,-5.6236,-5.624,-5.6243,-5.6393,0,-5.5189,-5.5372,-5.5405,-5.5565,-5.5656,-5.5663,-5.5753,-5.5824,-5.5865,-5.5947,-5.5992,-5.6085,-5.6055,-5.6091,-5.616,-5.6208,-5.6296,-5.6198,-5.6317,-5.6321,-5.6293,-5.6464,-5.6477,-5.6615,-5.6413,-5.6417,-5.6419,0,-5.5371,-5.5456,-5.5625,-5.5716,-5.5755,-5.5835,-5.5932,-5.6012,-5.6094,-5.6119,-5.6186,-5.6198,-5.6307,-5.6254,-5.6405,-5.6338,-5.6389,-5.6421,-5.6427,-5.6437,-5.6374,-5.6476,-5.666,-5.668,-5.6451,-5.6448,-5.6446,0,-5.5455,-5.5613,-5.5735,-5.5778,-5.5887,-5.5944,-5.5992,-5.607,-5.613,-5.6216,-5.6255,-5.6352,-5.6404,-5.6479,-5.6518,-5.6475,-5.6667,-5.6616,-5.669,-5.6689,-5.6726,-5.6723,-5.6919,-5.6764,-5.6763,-5.6763,-5.6763,0,-5.5602,-5.5705,-5.5775,-5.5849,-5.5966,-5.6005,-5.612,-5.6167,-5.6238,-5.6322,-5.6336,-5.6415,-5.6463,-5.6549,-5.6581,-5.6702,-5.6726,-5.6749,-5.6755,-5.6746,-5.6743,-5.6777,-5.6768,-5.6769,-5.6767,-5.6766,-5.6765,0,-5.5714,-5.5765,-5.5898,-5.5992,-5.6019,-5.6101,-5.6181,-5.6255,-5.6297,-5.6405,-5.6432,-5.6498,-5.6601,-5.6649,-5.6776,-5.6798,-5.6935,-5.6936,-5.6907,-5.6909,-5.6979,-5.6971,-5.7202,-5.7235,-5.706,-5.7062,-5.7063,0,-5.5803,-5.5883,-5.5987,-5.6045,-5.6095,-5.6189,-5.6251,-5.6294,-5.6358,-5.6461,-5.6523,-5.6627,-5.6712,-5.6878,-5.6937,-5.7035,-5.7037,-5.7112,-5.7052,-5.7041,-5.7037,-5.7031,-5.7039,-5.7121,-5.7123,-5.7125,-5.7126,0,-5.5955,-5.5977,-5.6066,-5.6166,-5.624,-5.632,-5.6399,-5.6446,-5.6502,-5.6574,-5.6681,-5.6747,-5.688,-5.6983,-5.7086,-5.7136,-5.7141,-5.7145,-5.7167,-5.7157,-5.7136,-5.7147,-5.6934,-5.7138,-5.7137,-5.7136,-5.7136,-5.7135,-5.6057,-5.6129,-5.6214,-5.6314,-5.6379,-5.6453,-5.6528,-5.6582,-5.6671,-5.6782,-5.6804,-5.6917,-5.7002,-5.7141,-5.7196,-5.7286,-5.7268,-5.73,-5.7308,-5.7314,-5.7318,-5.7125,-5.7305,-5.7305,-5.7304,-5.7304,-5.7304,0,-5.6208,-5.6265,-5.6357,-5.6468,-5.6547,-5.6548,-5.6637,-5.6702,-5.6803,-5.6882,-5.6967,-5.7091,-5.7193,-5.7263,-5.7366,-5.7425,-5.743,-5.7451,-5.7445,-5.7457,-5.7328,-5.7298,-5.7445,-5.7445,-5.7445,-5.7445,-5.7445,-5.7445,-5.6296,-5.6418,-5.6452,-5.6608,-5.6665,-5.6777,-5.6827,-5.6897,-5.696,-5.7098,-5.7184,-5.723,-5.7306,-5.7416,-5.751,-5.7529,-5.7565,-5.7586,-5.7604,-5.7481,-5.7466,-5.7452,-5.7423,-5.7595,-5.7595,-5.7725,-5.7726,-5.7727]},{"header":{"parameterUnit":"m.s-1","parameterCategory":1,"la1":30.2991,"la2":30.254,"lo1":-89.0895,"lo2":-89.0444,"dy":0.0017,"dx":0.0017,"nx":28,"ny":28,"refTime":"2025-12-17T03:00:00:Z","depth":0,"parameterNumber":3,"parameterNumberName":"V-component_of_WINDS"},"data":[0,0,0,0,0,0,0,0,0,0,0,0,0,0,0,0,0,0,0,0,0,0,0,0,0,0,0,0,0,0,0,0,0,0,0,0,0,0,0,0,0,0,0,0,0,0,0,0,0,0,0,0,0,0,0,0,0,0,1.7376,1.7376,0,1.7361,1.7361,1.7361,1.7341,1.7341,1.7341,1.734,1.732,1.732,1.732,0,0,0,0,0,0,0,0,0,0,0,0,0,1.7386,1.7386,1.7376,1.7376,1.7376,1.7361,1.7361,1.7361,1.7341,1.7341,1.7341,1.734,1.732,1.732,1.732,0,0,0,0,0,0,0,0,0,0,0,0,0,1.7377,1.7386,1.7376,1.7364,1.7363,1.7361,1.7361,1.7361,1.7341,1.7341,1.734,1.734,1.7321,1.732,1.732,1.7327,0,0,1.7319,1.7318,0,0,0,0,0,0,0,0,1.7378,1.7377,1.7366,1.7365,1.7364,1.7353,1.7357,1.7349,1.7341,1.735,1.734,1.734,1.7331,1.733,1.7328,1.7326,1.7325,1.7319,1.7318,1.7318,1.7318,0,0,0,0,0,0,0,1.7378,1.7377,1.737,1.7366,1.7365,1.7359,1.7358,1.7356,1.7343,1.7349,1.7347,1.7346,1.733,1.7328,1.7327,1.7325,1.7319,1.7318,1.7318,1.7318,1.733,1.7331,0,0,0,0,0,0,1.7381,1.7378,1.7371,1.737,1.737,1.736,1.7358,1.7357,1.7343,1.7341,1.7347,1.7345,1.7329,1.7328,1.7327,1.7335,1.7318,1.7318,1.7318,1.733,1.733,1.7331,0,0,0,0,0,0,1.7382,1.7381,1.7371,1.7374,1.7372,1.736,1.7359,1.7357,1.7355,1.7341,1.7339,1.7347,1.7329,1.7327,1.7328,1.7334,1.7318,1.7317,1.7329,1.733,1.7331,1.7352,0,0,0,0,0,0,1.7382,1.7381,1.7384,1.7374,1.7372,1.7373,1.7359,1.7357,1.7355,1.7353,1.7341,1.7338,1.7328,1.7329,1.7327,1.7334,1.7317,1.7328,1.7329,1.733,1.7351,1.7354,1.7356,0,0,0,0,0,1.7382,1.7389,1.7384,1.7383,1.7375,1.7374,1.7372,1.7362,1.7355,1.7358,1.735,1.7339,1.7334,1.7329,1.7327,1.7333,1.7328,1.7329,1.733,1.735,1.7353,1.7356,0,0,0,0,0,0,1.7397,1.7387,1.7382,1.7385,1.7381,1.737,1.7373,1.7365,1.7361,1.736,1.7346,1.7343,1.7346,1.734,1.7334,1.7341,1.733,1.7331,1.7345,1.7348,1.735,1.7352,1.7317,0,0,0,0,0,1.7401,1.7402,1.7392,1.7396,1.7395,1.7385,1.7383,1.7376,1.737,1.7368,1.736,1.7353,1.7351,1.7349,1.7346,1.735,1.7348,1.7354,1.7357,1.7359,1.736,1.7364,1.7367,1.7335,1.7335,1.7335,0,0,1.7408,1.7403,1.7404,1.7399,1.7395,1.7396,1.7383,1.7383,1.7384,1.7367,1.7368,1.7363,1.7355,1.7358,1.7359,1.7353,1.7369,1.7361,1.7363,1.7362,1.7366,1.7369,1.7371,1.7336,1.7336,1.7336,0,0,1.7422,1.7418,1.7422,1.742,1.7414,1.7408,1.7409,1.7401,1.7397,1.7399,1.7387,1.7387,1.7382,1.7378,1.7375,1.7393,1.7383,1.7392,1.7405,1.7409,1.7412,1.7414,1.7421,1.7424,1.7393,1.7393,1.7393,0,1.7432,1.7433,1.7425,1.7427,1.7426,1.7415,1.7419,1.7416,1.7409,1.7408,1.7402,1.7399,1.7392,1.7396,1.7401,1.7398,1.7399,1.7392,1.7413,1.7415,1.7416,1.7423,1.7426,1.7394,1.7394,1.7394,1.7394,0,1.7446,1.7447,1.7451,1.7448,1.7447,1.745,1.7443,1.7443,1.7437,1.7432,1.7434,1.7427,1.7423,1.7424,1.7416,1.7427,1.7424,1.7415,1.7403,1.7421,1.7427,1.7429,1.7396,1.7395,1.7395,1.7395,0,0,1.7466,1.7461,1.7463,1.7462,1.7458,1.7458,1.7462,1.746,1.7461,1.7458,1.7461,1.7459,1.7453,1.745,1.7442,1.7446,1.7462,1.7437,1.7437,1.7443,1.7475,1.7481,1.7484,1.7456,1.7457,1.7457,1.7476,0,1.7479,1.7486,1.748,1.7488,1.749,1.7481,1.7484,1.7481,1.7477,1.7478,1.7473,1.7473,1.7463,1.7462,1.7465,1.7459,1.7468,1.7458,1.7458,1.7458,1.746,1.7487,1.7493,1.7511,1.7478,1.7478,1.7479,0,1.7494,1.7495,1.7504,1.7502,1.7502,1.7505,1.7505,1.7506,1.7504,1.7501,1.75,1.7492,1.7496,1.7485,1.749,1.7484,1.7484,1.7481,1.7482,1.7481,1.7469,1.7487,1.7516,1.7519,1.7482,1.7482,1.7482,0,1.7509,1.7512,1.7519,1.7518,1.7516,1.7518,1.7517,1.7515,1.7515,1.7515,1.7515,1.7515,1.7514,1.7514,1.7507,1.75,1.7513,1.7502,1.7511,1.7511,1.7513,1.7513,1.7542,1.7513,1.7513,1.7513,1.7513,0,1.7525,1.753,1.7526,1.7529,1.7536,1.753,1.7537,1.7534,1.7533,1.7536,1.7528,1.7531,1.7521,1.7523,1.7518,1.7524,1.7523,1.7521,1.7519,1.7521,1.7522,1.7521,1.7519,1.7514,1.7514,1.7514,1.7513,0,1.7541,1.7538,1.7545,1.7544,1.7543,1.7549,1.7547,1.755,1.7547,1.7552,1.7552,1.7547,1.7549,1.7543,1.7543,1.754,1.7549,1.7545,1.755,1.7549,1.7558,1.7558,1.7588,1.7592,1.756,1.7561,1.7561,0,1.7551,1.7556,1.7556,1.7559,1.7559,1.7563,1.7565,1.7559,1.7561,1.7561,1.7565,1.7568,1.7569,1.7573,1.7569,1.757,1.7566,1.7577,1.7566,1.7569,1.7567,1.7567,1.7568,1.7579,1.7579,1.7579,1.758,0,1.7569,1.7568,1.7572,1.7576,1.7579,1.7581,1.7582,1.7585,1.758,1.7583,1.7586,1.7588,1.7591,1.7593,1.7594,1.7592,1.7585,1.7584,1.7586,1.7588,1.7591,1.7591,1.7556,1.7583,1.7582,1.7582,1.7582,1.7582,1.7582,1.7588,1.759,1.7594,1.7596,1.7599,1.7603,1.7602,1.7606,1.7609,1.7606,1.7611,1.7611,1.7612,1.7611,1.7615,1.761,1.7613,1.7613,1.7614,1.7616,1.7592,1.7615,1.7615,1.7615,1.7615,1.7614,0,1.7601,1.7603,1.7607,1.7612,1.7616,1.7612,1.7615,1.7618,1.7623,1.7625,1.7628,1.7633,1.7637,1.7635,1.7638,1.7641,1.7638,1.7642,1.7642,1.7642,1.762,1.7618,1.7645,1.7645,1.7645,1.7645,1.7645,1.7645,1.761,1.7619,1.762,1.763,1.7631,1.7638,1.764,1.7643,1.7644,1.7652,1.7656,1.7655,1.7655,1.7659,1.7662,1.7661,1.7663,1.7668,1.7666,1.7646,1.7643,1.764,1.7638,1.7668,1.7668,1.7687,1.7688,1.7688]}]]